EW6800 Weather Reports


time (UTC)temp
C
wind
direction
speed
KPH
gust
KPH
rain 1hr
cm
rain 24hr
cm
rain mn
cm
humidity
%
barometer
mb
20260507182545 16 323 3.2 6.4 0.00 0.00 0.00 80 1019.4
20260507182044 16 323 3.2 6.4 0.00 0.00 0.00 80 1019.3
20260507181549 16 309 1.6 6.4 0.00 0.00 0.00 81 1019.2
20260507181044 15 309 1.6 6.4 0.00 0.00 0.00 81 1019.1
20260507180545 15 329 1.6 6.4 0.00 0.00 0.00 82 1019.1
20260507180056 15 315 1.6 6.4 0.00 0.00 0.00 82 1019.1
20260507175543 15 313 0.0 6.4 0.00 0.00 0.00 82 1019.2
20260507175043 15 320 3.2 6.4 0.00 0.00 0.00 81 1019.2
20260507174604 15 327 3.2 8.0 0.00 0.00 0.00 81 1019.1
20260507174044 15 330 3.2 8.0 0.00 0.00 0.00 82 1019.1
20260507173544 15 330 3.2 6.4 0.00 0.00 0.00 81 1019.1
20260507173059 15 331 3.2 6.4 0.00 0.00 0.00 80 1019.1
20260507172547 16 0 0.0 1.6 0.00 0.00 0.00 80 1018.9
20260507172047 16 0 0.0 0.0 0.00 0.00 0.00 78 1018.9
20260507171602 16 0 0.0 0.0 0.00 0.00 0.00 78 1018.9
20260507171045 16 0 0.0 0.0 0.00 0.00 0.00 77 1018.9
20260507170544 16 0 0.0 0.0 0.00 0.00 0.00 76 1018.8
20260507170052 17 0 0.0 0.0 0.00 0.00 0.00 75 1018.9
20260507165543 17 0 0.0 0.0 0.00 0.00 0.00 75 1018.9
20260507165043 17 0 0.0 0.0 0.00 0.00 0.00 75 1018.9
20260507164552 17 0 0.0 0.0 0.00 0.00 0.00 76 1018.9
20260507164043 17 0 0.0 0.0 0.00 0.00 0.00 75 1018.8
20260507163544 17 0 0.0 0.0 0.00 0.00 0.00 75 1018.9
20260507163101 17 0 0.0 0.0 0.00 0.00 0.00 74 1018.9
20260507162543 17 0 0.0 0.0 0.00 0.00 0.00 74 1019.0
20260507162043 17 0 0.0 0.0 0.00 0.00 0.00 73 1019.0
20260507161555 17 0 0.0 0.0 0.00 0.00 0.00 73 1019.0
20260507161044 17 0 0.0 0.0 0.00 0.00 0.00 72 1018.9
20260507160543 17 0 0.0 0.0 0.00 0.00 0.00 72 1018.9
20260507160055 17 0 0.0 0.0 0.00 0.00 0.00 72 1018.8
20260507155543 17 0 0.0 0.0 0.00 0.00 0.00 75 1018.9
20260507155043 17 0 0.0 0.0 0.00 0.00 0.00 75 1018.9
20260507154554 17 0 0.0 0.0 0.00 0.00 0.00 75 1018.9
20260507154044 17 0 0.0 0.0 0.00 0.00 0.00 74 1018.9
20260507153543 17 0 0.0 0.0 0.00 0.00 0.00 74 1018.9
20260507153051 17 0 0.0 0.0 0.00 0.00 0.00 74 1018.8
20260507152543 16 0 0.0 0.0 0.00 0.00 0.00 75 1018.7
20260507152044 16 0 0.0 0.0 0.00 0.00 0.00 76 1018.9
20260507151555 16 0 0.0 0.0 0.00 0.00 0.00 76 1018.8
20260507151043 16 0 0.0 0.0 0.00 0.00 0.00 77 1018.8
20260507150544 16 0 0.0 0.0 0.00 0.00 0.00 78 1018.8
20260507150054 16 0 0.0 0.0 0.00 0.00 0.00 79 1018.8
20260507145544 15 0 0.0 0.0 0.00 0.00 0.00 80 1018.7
20260507145043 15 0 0.0 0.0 0.00 0.00 0.00 80 1018.8
20260507144610 15 0 0.0 0.0 0.00 0.00 0.00 81 1018.8
20260507144044 14 0 0.0 0.0 0.00 0.00 0.00 81 1018.7
20260507143544 14 0 0.0 0.0 0.00 0.00 0.00 80 1018.7
20260507143055 13 0 0.0 0.0 0.00 0.00 0.00 81 1018.8
20260507142543 13 0 0.0 0.0 0.00 0.00 0.00 81 1018.7
20260507142043 13 0 0.0 3.2 0.00 0.00 0.00 81 1018.7
20260507141622 13 0 0.0 3.2 0.00 0.00 0.00 81 1018.6
20260507141043 13 0 0.0 3.2 0.00 0.00 0.00 80 1018.5
20260507140544 13 65 0.0 0.0 0.00 0.00 0.00 82 1018.6
20260507140051 13 0 0.0 0.0 0.00 0.00 0.00 87 1018.6
20260507135548 12 0 0.0 0.0 0.00 0.00 0.00 88 1018.5
20260507135045 12 0 0.0 0.0 0.00 0.00 0.00 89 1018.4
20260507134551 12 0 0.0 0.0 0.00 0.00 0.00 88 1018.6
20260507134043 12 0 0.0 0.0 0.00 0.00 0.00 88 1018.5
20260507133544 12 0 0.0 0.0 0.00 0.00 0.00 88 1018.4
20260507133052 12 0 0.0 1.6 0.00 0.00 0.00 87 1018.3
20260507132543 13 0 0.0 3.2 0.00 0.00 0.00 86 1018.2
20260507132043 13 306 1.6 3.2 0.00 0.00 0.00 85 1018.2
20260507131549 13 306 0.0 4.8 0.00 0.00 0.00 84 1018.3
20260507131043 13 306 0.0 4.8 0.00 0.00 0.00 82 1018.2
20260507130544 14 306 3.2 4.8 0.00 0.00 0.00 82 1018.2
20260507130053 14 306 1.6 4.8 0.00 0.00 0.00 81 1018.1
20260507125544 14 306 1.6 4.8 0.00 0.00 0.00 81 1018.1
20260507125044 14 306 1.6 4.8 0.00 0.00 0.00 81 1018.1
20260507124556 14 306 1.6 4.8 0.00 0.00 0.00 80 1018.0
20260507124046 15 306 1.6 4.8 0.00 0.00 0.00 80 1018.1
20260507123544 15 306 3.2 4.8 0.00 0.00 0.00 80 1018.2
20260507123054 14 306 1.6 4.8 0.00 0.00 0.00 80 1018.2
20260507122544 14 306 1.6 4.8 0.00 0.00 0.00 80 1018.2
20260507122044 14 306 1.6 4.8 0.00 0.00 0.00 80 1018.2
20260507121553 14 306 3.2 4.8 0.00 0.00 0.00 80 1018.2
20260507121043 14 306 3.2 4.8 0.00 0.00 0.00 81 1018.3
20260507120543 14 306 3.2 4.8 0.00 0.00 0.00 82 1018.3
20260507120050 13 306 1.6 4.8 0.00 0.00 0.00 82 1018.3
20260507115543 13 306 3.2 4.8 0.00 0.00 0.00 83 1018.3
20260507115043 13 306 3.2 4.8 0.00 0.00 0.00 83 1018.4
20260507114555 13 306 3.2 4.8 0.00 0.00 0.00 84 1018.4
20260507114047 13 306 1.6 4.8 0.00 0.00 0.00 85 1018.4
20260507113543 12 0 0.0 6.4 0.00 0.00 0.00 85 1018.4
20260507113056 12 306 3.2 6.4 0.00 0.00 0.00 85 1018.6
20260507112543 12 306 3.2 8.0 0.00 0.00 0.00 86 1018.6
20260507112044 12 306 3.2 8.0 0.00 0.00 0.00 87 1018.5
20260507111552 11 309 3.2 6.4 0.00 0.00 0.00 90 1018.5
20260507111047 11 309 3.2 6.4 0.00 0.00 0.00 91 1018.5
20260507110545 11 309 3.2 4.8 0.00 0.00 0.00 90 1018.6
20260507110053 11 309 3.2 4.8 0.00 0.00 0.00 90 1018.5
20260507105543 11 309 1.6 3.2 0.00 0.00 0.00 89 1018.5
20260507105047 11 309 1.6 3.2 0.00 0.00 0.00 86 1018.4
20260507104555 12 309 1.6 3.2 0.00 0.00 0.00 84 1018.4
20260507104047 12 309 1.6 3.2 0.00 0.00 0.00 84 1018.5
20260507103543 13 0 0.0 0.0 0.00 0.00 0.00 84 1018.4
20260507103050 13 0 0.0 0.0 0.00 0.00 0.00 84 1018.6
20260507102544 13 0 0.0 0.0 0.00 0.00 0.00 84 1018.6
20260507102045 13 0 0.0 0.0 0.00 0.00 0.00 84 1018.6
20260507101552 13 0 0.0 0.0 0.00 0.00 0.00 85 1018.5
20260507101047 13 0 0.0 0.0 0.00 0.00 0.00 85 1018.5
20260507100544 13 0 0.0 0.0 0.00 0.00 0.00 85 1018.4
20260507100215 13 0 0.0 0.0 0.00 0.00 0.00 84 1018.5
20260507095545 13 0 0.0 0.0 0.00 0.00 0.00 83 1018.6
20260507095045 13 0 0.0 0.0 0.00 0.00 0.00 83 1018.5
20260507094550 13 0 0.0 0.0 0.00 0.00 0.00 82 1018.6
20260507094045 13 0 0.0 0.0 0.00 0.00 0.00 82 1018.6
20260507093544 13 0 0.0 0.0 0.00 0.00 0.00 84 1018.7
20260507093059 13 0 0.0 0.0 0.00 0.00 0.00 83 1018.6
20260507092545 13 0 0.0 0.0 0.00 0.00 0.00 84 1018.6
20260507092048 13 0 0.0 0.0 0.00 0.00 0.00 85 1018.8
20260507091557 13 0 0.0 0.0 0.00 0.00 0.00 85 1018.8
20260507091044 13 0 0.0 0.0 0.00 0.00 0.00 85 1018.7
20260507090544 13 0 0.0 0.0 0.00 0.00 0.00 85 1018.8
20260507090157 13 0 0.0 0.0 0.00 0.00 0.00 84 1018.9
20260507085540 13 0 0.0 0.0 0.00 0.00 0.00 84 1018.9
20260507085047 13 0 0.0 0.0 0.00 0.00 0.00 85 1018.9
20260507084552 13 0 0.0 0.0 0.00 0.00 0.00 84 1019.0
20260507084044 13 0 0.0 1.6 0.00 0.00 0.00 84 1018.9
20260507083544 13 0 0.0 3.2 0.00 0.00 0.00 85 1019.0
20260507083052 12 309 0.0 3.2 0.00 0.00 0.00 85 1019.0
20260507082546 13 309 1.6 3.2 0.00 0.00 0.00 85 1019.1
20260507082044 13 309 1.6 4.8 0.00 0.00 0.00 85 1019.1
20260507081550 13 309 1.6 6.4 0.00 0.00 0.00 85 1019.1
20260507081044 12 309 3.2 6.4 0.00 0.00 0.00 85 1019.3
20260507080543 12 309 3.2 6.4 0.00 0.00 0.00 85 1019.1
20260507075543 12 309 3.2 6.4 0.00 0.00 0.00 87 1019.3
20260507075045 12 309 3.2 6.4 0.00 0.00 0.00 88 1019.2
20260507074552 12 309 4.8 8.0 0.00 0.00 0.00 89 1019.1
20260507074044 12 309 4.8 8.0 0.00 0.00 0.00 90 1019.2
20260507073545 12 309 4.8 8.0 0.00 0.00 0.00 91 1019.3
20260507073100 12 312 6.4 9.7 0.00 0.00 0.00 93 1019.3
20260507072545 12 311 6.4 9.7 0.00 0.00 0.00 94 1019.3
20260507072045 11 314 6.4 9.7 0.00 0.00 0.00 94 1019.3
20260507071556 11 315 4.8 9.7 0.00 0.00 0.00 94 1019.3
20260507071043 11 315 6.4 9.7 0.00 0.00 0.00 95 1019.3
20260507070544 11 313 4.8 9.7 0.00 0.00 0.00 96 1019.2
20260507070058 11 313 4.8 12.9 0.00 0.00 0.00 96 1019.4
20260507065547 11 315 8.0 12.9 0.00 0.00 0.00 96 1019.3
20260507065043 10 311 6.4 12.9 0.00 0.00 0.00 96 1019.3
20260507064551 10 315 6.4 9.7 0.00 0.00 0.00 96 1019.2
20260507064044 10 317 4.8 8.0 0.00 0.00 0.00 96 1019.3
20260507063545 10 314 4.8 8.0 0.00 0.00 0.00 96 1019.3
20260507063054 10 315 4.8 8.0 0.00 0.00 0.00 96 1019.3
20260507062544 10 315 4.8 8.0 0.00 0.00 0.00 96 1019.2
20260507062044 10 314 3.2 8.0 0.00 0.00 0.00 96 1019.3
20260507061552 10 314 3.2 9.7 0.00 0.00 0.00 96 1019.4
20260507061044 10 314 6.4 11.3 0.00 0.00 0.00 95 1019.3
20260507060543 10 310 4.8 12.9 0.00 0.00 0.00 96 1019.4
20260507060056 11 310 3.2 12.9 0.00 0.00 0.00 96 1019.4
20260507055545 11 313 6.4 12.9 0.00 0.00 0.00 96 1019.4
20260507055044 11 314 6.4 12.9 0.00 0.00 0.00 96 1019.4
20260507054551 11 311 9.7 12.9 0.00 0.00 0.00 96 1019.4
20260507054043 10 316 6.4 9.7 0.00 0.00 0.00 96 1019.4
20260507053544 11 311 1.6 4.8 0.00 0.00 0.00 96 1019.6
20260507053056 11 311 0.0 6.4 0.00 0.00 0.00 96 1019.5
20260507052543 10 312 1.6 6.4 0.00 0.00 0.00 96 1019.6
20260507052045 9 312 3.2 6.4 0.00 0.00 0.00 96 1019.6
20260507051552 9 304 3.2 4.8 0.00 0.00 0.00 95 1019.6
20260507051044 9 304 3.2 6.4 0.00 0.00 0.00 95 1019.6
20260507050544 9 303 3.2 8.0 0.00 0.00 0.00 95 1019.6
20260507050052 9 303 3.2 8.0 0.00 0.00 0.00 95 1019.6
20260507045547 9 304 3.2 8.0 0.00 0.00 0.00 96 1019.7
20260507045045 9 304 3.2 8.0 0.00 0.00 0.00 96 1019.7
20260507044559 9 304 3.2 8.0 0.00 0.00 0.00 96 1019.6
20260507044043 9 306 4.8 9.7 0.00 0.00 0.00 96 1019.6
20260507043543 9 310 4.8 12.9 0.00 0.00 0.00 96 1019.7
20260507043056 10 311 6.4 12.9 0.00 0.00 0.00 95 1019.5
20260507042544 10 309 8.0 12.9 0.00 0.00 0.00 95 1019.5
20260507042047 10 313 8.0 12.9 0.00 0.00 0.00 95 1019.5
20260507041550 10 314 8.0 17.7 0.00 0.00 0.00 95 1019.4
20260507041045 10 312 11.3 17.7 0.00 0.00 0.00 95 1019.3
20260507040547 10 309 11.3 17.7 0.00 0.00 0.00 95 1019.3
20260507040051 10 315 9.7 16.1 0.00 0.00 0.00 95 1019.2
20260507035544 10 309 11.3 16.1 0.00 0.00 0.00 95 1019.3
20260507035044 10 294 8.0 14.5 0.00 0.00 0.00 95 1019.2
20260507034551 10 315 8.0 14.5 0.00 0.00 0.00 95 1019.1
20260507034044 10 306 8.0 14.5 0.00 0.00 0.00 95 1019.3
20260507033546 10 309 8.0 14.5 0.00 0.00 0.00 95 1019.3
20260507033048 10 320 9.7 14.5 0.00 0.00 0.00 95 1019.1
20260507032544 10 314 9.7 14.5 0.00 0.00 0.00 95 1019.1
20260507032046 10 312 4.8 14.5 0.00 0.00 0.00 95 1019.1
20260507031547 10 315 8.0 14.5 0.00 0.00 0.00 95 1019.1
20260507031044 10 315 9.7 14.5 0.00 0.00 0.00 95 1018.9
20260507030548 10 316 9.7 14.5 0.00 0.00 0.00 95 1018.9
20260507030054 10 309 6.4 16.1 0.00 0.00 0.00 95 1018.9
20260507025547 10 316 9.7 17.7 0.00 0.00 0.00 95 1018.9
20260507025044 10 307 11.3 17.7 0.00 0.00 0.00 95 1018.9
20260507024554 10 295 9.7 17.7 0.00 0.00 0.00 95 1018.8
20260507024045 10 304 11.3 17.7 0.00 0.00 0.00 94 1018.8
20260507023544 10 308 11.3 17.7 0.00 0.00 0.00 94 1018.7
20260507023054 10 313 11.3 17.7 0.00 0.00 0.00 94 1018.8
20260507022544 10 311 11.3 17.7 0.00 0.00 0.00 94 1018.7
20260507022043 11 299 12.9 17.7 0.00 0.00 0.00 94 1018.8
20260507021549 11 309 11.3 17.7 0.00 0.00 0.00 94 1018.8
20260507021044 11 315 9.7 20.9 0.00 0.00 0.00 94 1018.8
20260507020544 11 318 12.9 20.9 0.00 0.00 0.00 93 1018.8
20260507020052 11 303 11.3 19.3 0.00 0.00 0.00 93 1018.9
20260507015544 11 300 11.3 19.3 0.00 0.00 0.00 93 1018.9
20260507015043 11 303 11.3 17.7 0.00 0.00 0.00 93 1018.9
20260507014550 11 300 9.7 16.1 0.00 0.00 0.00 92 1018.9
20260507014044 11 308 9.7 16.1 0.00 0.00 0.00 91 1018.9
20260507013544 12 301 8.0 16.1 0.00 0.00 0.00 91 1018.9
20260507013057 12 292 9.7 16.1 0.00 0.00 0.00 90 1018.9
20260507012543 12 300 9.7 16.1 0.00 0.00 0.00 90 1018.9
20260507012044 12 305 6.4 16.1 0.00 0.00 0.00 90 1018.9
20260507011553 12 319 8.0 16.1 0.00 0.00 0.00 90 1018.9
20260507011046 12 300 11.3 16.1 0.00 0.00 0.00 90 1018.9
20260507010544 12 307 6.4 19.3 0.00 0.00 0.00 90 1018.9
20260507010048 12 305 11.3 19.3 0.00 0.00 0.00 89 1018.9
20260507005544 12 309 9.7 19.3 0.00 0.00 0.00 88 1018.9
20260507005044 12 314 11.3 19.3 0.00 0.00 0.00 87 1019.0
20260507004552 13 311 12.9 17.7 0.00 0.00 0.00 87 1018.9
20260507004045 13 312 11.3 17.7 0.00 0.00 0.00 87 1018.8
20260507003547 13 308 12.9 17.7 0.00 0.00 0.00 87 1018.7
20260507003051 13 305 12.9 17.7 0.00 0.00 0.00 86 1018.7
20260507002544 13 306 9.7 16.1 0.00 0.00 0.00 86 1018.5
20260507002043 13 317 11.3 16.1 0.00 0.00 0.00 86 1018.7
20260507001548 13 298 9.7 17.7 0.00 0.00 0.00 85 1018.7
20260507001044 13 316 9.7 17.7 0.00 0.00 0.00 85 1018.7
20260507000546 13 314 9.7 17.7 0.00 0.00 0.00 84 1018.6
20260507000053 14 305 8.0 20.9 0.00 0.00 0.00 84 1018.7
20260506235543 14 304 8.0 20.9 0.00 0.00 0.00 83 1018.7
20260506235048 14 302 12.9 20.9 0.00 0.00 0.00 82 1018.7
20260506234555 15 298 6.4 14.5 0.00 0.00 0.00 81 1018.6
20260506234048 15 298 8.0 12.9 0.00 0.00 0.00 81 1018.6
20260506233544 15 285 8.0 14.5 0.00 0.00 0.00 80 1018.6
20260506233049 15 289 6.4 16.1 0.00 0.00 0.00 81 1018.7
20260506232543 15 299 6.4 16.1 0.00 0.00 0.00 81 1018.7
20260506232044 15 315 9.7 16.1 0.00 0.00 0.00 80 1018.7
20260506231552 15 311 8.0 14.5 0.00 0.00 0.00 79 1018.8
20260506231044 15 304 8.0 14.5 0.00 0.00 0.00 79 1018.8
20260506230543 15 308 8.0 16.1 0.00 0.00 0.00 80 1018.9
20260506230046 15 311 9.7 16.1 0.00 0.00 0.00 80 1018.9
20260506225544 15 297 8.0 16.1 0.00 0.00 0.00 80 1019.0
20260506225043 15 292 9.7 14.5 0.00 0.00 0.00 79 1019.1
20260506224600 15 306 8.0 16.1 0.00 0.00 0.00 80 1019.2
20260506224042 15 293 8.0 16.1 0.00 0.00 0.00 78 1019.2
20260506223546 16 315 8.0 16.1 0.00 0.00 0.00 77 1019.3
20260506223052 16 296 9.7 16.1 0.00 0.00 0.00 76 1019.2
20260506222547 16 298 9.7 16.1 0.00 0.00 0.00 75 1019.2
20260506222044 17 309 8.0 16.1 0.00 0.00 0.00 75 1019.3
20260506221554 17 288 8.0 14.5 0.00 0.00 0.00 75 1019.3
20260506221043 17 291 8.0 14.5 0.00 0.00 0.00 74 1019.3
20260506220544 17 308 6.4 14.5 0.00 0.00 0.00 74 1019.4
20260506220049 17 295 4.8 14.5 0.00 0.00 0.00 73 1019.4
20260506215544 17 304 8.0 14.5 0.00 0.00 0.00 73 1019.4
20260506215043 17 296 6.4 12.9 0.00 0.00 0.00 74 1019.4
20260506214607 17 324 4.8 12.9 0.00 0.00 0.00 73 1019.6
20260506214044 17 301 4.8 12.9 0.00 0.00 0.00 74 1019.5
20260506213544 17 304 4.8 14.5 0.00 0.00 0.00 74 1019.6
20260506213051 17 321 4.8 16.1 0.00 0.00 0.00 74 1019.6
20260506212544 17 298 8.0 16.1 0.00 0.00 0.00 73 1019.5
20260506212043 17 305 8.0 14.5 0.00 0.00 0.00 73 1019.7
20260506211548 17 309 6.4 14.5 0.00 0.00 0.00 73 1019.6
20260506211043 17 326 8.0 14.5 0.00 0.00 0.00 72 1019.7
20260506210543 18 309 8.0 12.9 0.00 0.00 0.00 72 1019.6
20260506210055 17 301 6.4 12.9 0.00 0.00 0.00 72 1019.7
20260506205544 17 319 4.8 14.5 0.00 0.00 0.00 72 1019.7
20260506205044 17 295 6.4 14.5 0.00 0.00 0.00 71 1019.7
20260506204604 18 309 6.4 12.9 0.00 0.00 0.00 71 1019.8
20260506204043 17 325 3.2 8.0 0.00 0.00 0.00 73 1019.7
20260506203544 17 328 3.2 11.3 0.00 0.00 0.00 71 1019.8
20260506203055 17 305 3.2 11.3 0.00 0.00 0.00 71 1019.8
20260506202543 17 333 4.8 12.9 0.00 0.00 0.00 72 1020.0
20260506202045 17 331 4.8 16.1 0.00 0.00 0.00 72 1020.0
20260506201551 17 307 4.8 16.1 0.00 0.00 0.00 70 1020.0
20260506201043 18 318 3.2 8.0 0.00 0.00 0.00 70 1020.0
20260506200544 17 153 3.2 8.0 0.00 0.00 0.00 71 1020.1
20260506200050 17 301 4.8 8.0 0.00 0.00 0.00 71 1020.1
20260506195543 17 276 3.2 8.0 0.00 0.00 0.00 69 1020.0
20260506195046 18 312 3.2 12.9 0.00 0.00 0.00 67 1020.0
20260506194600 18 305 4.8 12.9 0.00 0.00 0.00 66 1020.1
20260506194049 19 316 1.6 8.0 0.00 0.00 0.00 63 1020.0
20260506193544 20 355 1.6 6.4 0.00 0.00 0.00 62 1020.0
20260506193052 20 0 1.6 8.0 0.00 0.00 0.00 60 1020.0
20260506192558 20 78 1.6 8.0 0.00 0.00 0.00 60 1020.1
20260506192044 20 69 3.2 6.4 0.00 0.00 0.00 61 1020.1
20260506191555 19 0 3.2 11.3 0.00 0.00 0.00 60 1020.2
20260506191044 19 108 3.2 11.3 0.00 0.00 0.00 62 1020.2
20260506190543 19 138 3.2 11.3 0.00 0.00 0.00 61 1020.2
20260506190053 19 60 3.2 9.7 0.00 0.00 0.00 60 1020.2
20260506185543 19 90 3.2 9.7 0.00 0.00 0.00 63 1020.2
20260506185043 18 109 0.0 8.0 0.00 0.00 0.00 67 1020.2
20260506184556 18 141 1.6 8.0 0.00 0.00 0.00 67 1020.2
20260506184044 18 61 0.0 8.0 0.00 0.00 0.00 69 1020.3
20260506183545 17 0 1.6 8.0 0.00 0.00 0.00 72 1020.3
20260506183100 17 0 0.0 4.8 0.00 0.00 0.00 72 1020.3